Regional Weather Roundup
Issued by NWS Pendleton, OR

Home | Current Version | Previous Version | Text Only | Print | Product List | Glossary On
Versions: 1 2 3 4 5 6 7 8 9 10 11 12 13 14 15 16 17 18 19 20 21 22 23 24 25 26 27 28 29 30 31 32 33 34 35 36 37 38 39 40 41 42 43 44 45 46 47 48 49 50
000
ASUS46 KPDT 292310
RWRPDT
PENDLETON REGIONAL WEATHER ROUNDUP
NATIONAL WEATHER SERVICE PENDLETON OREGON
400 PM PDT MON JUN 29 2015

NOTE: FAIR INDICATES FEW OR NO CLOUDS BELOW 12,000 FEET WITH NO
SIGNIFICANT WEATHER AND/OR OBSTRUCTIONS TO VISIBILITY.

# INDICATES UNOFFICIAL STATION AND DATA

WAZ520-300010-
EAST SLOPES OF WASHINGTON CASCADES

CITY            SKY/WX      TMP DP  RH  WIND    PRES   REMARKS
#BULLFROG 2SW   N/A         86  57  37  N9      27.60S
#BUMPING DAM    N/A         81  N/A N/A NE2     N/A
#CLE ELUM HS    N/A         88  54  31  W10     29.91S
#CLE ELUM LAKE  N/A         86  58  39  W1      29.82F
#CLIFFDEL 2NW   N/A         88  55  33  N5      N/A
#EASTON DOT     N/A         87  30  13  N5      N/A
#GLENWOOD       N/A         88  69  54  S6      29.81F
#MANASTASH CYN  N/A         82  57  43  CALM    29.99F
#NELSON         N/A         89  59  37  NW1     29.84S
#NELSON 3SW     N/A         86  57  37  CALM    30.01S
#NILE           N/A         91  52  27  SW6     29.12R HX 88
#PEOH POINT     N/A         82  54  38  W6      N/A
#RONALD 2NW     N/A         88  60  39  W2      29.91S
#SNOWDEN        N/A         84  44  25  NW3     N/A
#SOUTH BLEWITT  N/A         N/A N/A N/A CALM    N/A
#TEANAWAY 4NE   N/A         92  60  34  S5      N/A    HX 92
#TROUT LAKE 1NE N/A         90  60  37  W10     29.83R HX 90
$$

WAZ521-300010-
SIMCOE HIGHLANDS

CITY            SKY/WX      TMP DP  RH  WIND    PRES   REMARKS
#BICKLETON HS   N/A         90  42  19  S9      N/A    HX 86
#SATUS PASS DOT N/A         89  55  32  CALM    N/A
#CENTERVILLE 4W N/A         91  62  38  W20     29.71F HX 91
#CENTERVILLE 1SWN/A         91  61  37  W14     29.78S HX 91
#GOLDENDALE     N/A         95  60  31  W7      N/A    HX 95
#GOLDENDALE 5WNWN/A         92  63  38  SW16    29.79F HX 93
#GOODNOE HILLS  N/A         98  63  32  W21     N/A    HX 100
#LYLE 6NE       N/A         89  64  44  SW9     29.83S
$$

WAZ026-300010-
KITTITAS VALLEY

CITY            SKY/WX      TMP DP  RH  WIND    PRES   REMARKS
ELLENSBURG AP   PTCLDY      95  55  26  NW20    29.93S HX 93
YTC-OPS AREA    N/A         89  50  26  N10G28  29.98F
#ELLENSBURG CWU N/A         94  56  28  N13     29.76F HX 92
#ELLENSBURG 3NE N/A         91  60  36  NW10    29.92F HX 91
#ELLENSBURG 1E  N/A         96  57  27  CALM    N/A    HX 95
#KITTITAS 3S    N/A         88  63  43  W8      29.78F
#THORP 6N       N/A         88  57  35  W21G30  29.83S
$$

WAZ027-300010-
YAKIMA VALLEY

CITY            SKY/WX      TMP DP  RH  WIND    PRES   REMARKS
SUNNYSIDE AP    PTCLDY      93  62  36  CALM    29.84F HX 94
YAKIMA AIRPORT  PTCLDY      102 56  22  NW12    29.86F HX 101
#DONALD 2NE     N/A         100 41  13  S1      28.71F HX 95
#GRANDVIEW      N/A         96  55  25  CALM    29.79F HX 94
#MABTON         N/A         96  65  36  N3      29.83F HX 99
#MOXEE 2E       N/A         97  19   6  NW7     29.74F HX 92
#NACHES 2SW     N/A         94  64  37  W2      29.94S HX 96
#TERRACE HTS    N/A         99  59  27  S3      29.74F HX 99
#TOPPENISH      N/A         94  60  32  CALM    29.71F HX 94
#WAPATO 4NE     N/A         100 41  13  S1      28.71F HX 95
#WEST VALLEY    N/A         94  60  32  SE2     29.76F HX 94
#W YAKIMA       N/A         96  59  29  SW1     29.77F HX 95
#WHITE SWAN 5E  N/A         96  63  34  NE6     29.78F HX 98
#WILEY CITY 3W  N/A         96  48  20  N1      29.86F HX 93
$$

WAZ028-300010-
LOWER COLUMBIA BASIN...WASHINGTON

CITY            SKY/WX      TMP DP  RH  WIND    PRES   REMARKS
PASCO           SUNNY       97  60  30  S6      29.83F HX 97
RICHLAND AWOS   SUNNY       99  59  27  E8      29.84S HX 99
#BASIN CITY 5SW N/A         93  70  47  E2      29.84F HX 99
#BENTON CITY    N/A         95  62  34  NE2     29.70F HX 96
#CONNELL 5N     N/A         96  59  29  E2      29.78F HX 95
#CONNELL 5NW    N/A         94  62  35  SW2     29.76F HX 95
#ELTOPIA 6NW    N/A         92  63  38  CALM    28.84F HX 93
#KAHLOTUS       N/A         94  59  31  SW3     29.78F HX 93
#KENNEWICK      N/A         86  57  37  N9      27.60S
#KENNEWICK 3S   N/A         93  64  39  CALM    29.80F HX 95
#PATERSON       N/A         94  59  31  E2      29.78F HX 93
#PROSSER DOT    N/A         100 53  21  N2      N/A    HX 98
#PROSSER        N/A         99  52  21  NW3     29.78F HX 97
#SAGEMOOR 2W    N/A         94  67  41  SE2     29.66F HX 98
#TOUCHET 2S     N/A         97  66  37  NW2     29.78F HX 101
#WEST PASCO     N/A         99  66  34  E6      29.83F HX 103
$$

WAZ029-300010-
FOOTHILLS OF THE BLUES...WASHINGTON

CITY            SKY/WX      TMP DP  RH  WIND    PRES   REMARKS
WALLA WALLA AP  PTCLDY      94  56  28  SW6     29.89F HX 92
#DAYTON SCHOOL  N/A         90  56  32  NE1     29.92S HX 88
#LOWDEN 2SE     N/A         96  62  33  CALM    29.81F HX 97
#PLEASANT VIEW 1N/A         94  57  29  S7      29.82F HX 93
#PRESCOTT       N/A         93  63  37  CALM    29.78F HX 94
#SUDBURY        N/A         98  N/A N/A CALM    N/A
#WHITMAN COLLEGEN/A         92  60  34  W3      29.84F HX 92
#WAITSBURG 5S   N/A         92  58  32  SW5     29.88F HX 91
#WAITSBURG 8N   N/A         96  33  11  S6      29.71F HX 91
#WALLA WALLA U  N/A         95  61  33  CALM    29.80F HX 96
#WHITMAN MISSIONN/A         93  67  43  CALM    29.82F HX 97
$$

WAZ030-300010-
BLUE MOUNTAINS...WASHINGTON

CITY            SKY/WX      TMP DP  RH  WIND    PRES   REMARKS
#DIXIE 5SE      N/A         84  56  38  CALM    29.96S
$$

ORZ009-041-WAZ024-300010-
COLUMBIA RIVER GORGE

CITY            SKY/WX      TMP DP  RH  WIND    PRES   REMARKS
HOOD RIVER AP   SUNNY       88  61  41  W13G25  29.92R
THE DALLES AP   SUNNY       92  60  34  N24G30  29.85F HX 92
#ARLINGTON AIRPON/A         99  56  24  W7      29.78S HX 98
#ARLINGTON HS   N/A         101 54  21  S8      29.68F HX 99
#MARYHILL       N/A         97  57  27  N7      N/A    HX 96
#MOSIER 1S      N/A         87  50  28  W10     29.88F
#MURDOCK        N/A         90  64  42  W21G30  29.86F HX 91

$$

ORZ510-300010-
NORTH CENTRAL OREGON

CITY            SKY/WX      TMP DP  RH  WIND    PRES   REMARKS
#CHENOWITH 1W   N/A         85  59  41  W25     N/A
#DUFUR 9E       N/A         87  59  39  NW15G26 29.88F
#MAUPIN SCHOOL  N/A         98  55  24  NW5     29.88F HX 96
#MORO SCHOOL    N/A         89  65  45  W13     29.94F
#SHANIKO 4NW    N/A         88  42  20  N13     30.06S
#TYGH VALLEY 2NEN/A         97  57  27  N6      29.80S HX 96
#WAPANITIA AIRPON/A         94  54  26  N7      29.82S HX 92
#WASCO 5NE      N/A         96  61  32  SW3     29.81S HX 97
$$

ORZ511-300010-
CENTRAL OREGON

CITY            SKY/WX      TMP DP  RH  WIND    PRES   REMARKS
BEND AIRPORT    N/A         N/A N/A N/A MISG    N/A
MADRAS AIRPORT  PTCLDY      97  48  19  NW13    29.98F HX 94
PRINEVILLE AP   SUNNY       95  41  16  W12     29.99F HX 91
REDMOND AIRPORT SUNNY       96  46  18  NW17G26 29.98F HX 92
#BEND 1SW       N/A         92  36  14  SE2     N/A    HX 88
#BEND-AWBREY    N/A         95  55  26  N3      29.79F HX 93
#BEND-KIM LN    N/A         95  42  16  SW3     30.01S HX 91
#CULVER         N/A         94  55  27  N5      29.93F HX 92
#LAKE BILLY CHINN/A         94  13   5  N6      29.98F HX 89
#POWELL BUTTE   N/A         95  53  24  N7      29.65S HX 92
#PRINEVILLE 3N  N/A         92  59  33  W8      29.73F HX 91
#WARM SPRINGS   N/A         97  58  28  SW9     29.88S HX 97

$$


ORZ509-300010-
EAST SLOPES OF OREGON CASCADES

CITY            SKY/WX      TMP DP  RH  WIND    PRES   REMARKS
#CAMP SHERMAN   N/A         92  51  25  N2      29.83R HX 89
#LA PINE 4NW    N/A         89  46  23  CALM    29.85S
#SISTERS AIRPOR N/A         89  65  45  N9      30.17S
#SISTERS 3N     N/A         88  55  33  W6      30.04S
#SUNRIVER       N/A         92  40  16  SW2     29.71F HX 88
#TUMALO 3W      N/A         89  51  27  N10     29.69S

$$

ORZ044-300010-
LOWER COLUMBIA BASIN...OREGON

CITY            SKY/WX      TMP DP  RH  WIND    PRES   REMARKS
HERMISTON       SUNNY       97  59  29  CALM    29.84F HX 97
#BOARDMAN SCHOOLN/A         95  58  29  N6      29.83F HX 94
#BOARDMAN 8SW   N/A         97  63  33  NW3     29.78F HX 99
#ECHO 8SW       N/A         96  63  34  NE7     29.85F HX 98
#IONE SCHOOL    N/A         97  56  26  NW2     29.83F HX 96
#IRRIGON 4NW    N/A         98  57  26  E5      N/A    HX 97
#UMATILLA SCHOOLN/A         104 72  36  CALM    29.88F HX 115
#UMATILLA       N/A         99  61  29  CALM    29.74F HX 100
$$

ORZ507-300010-
NORTHERN FOOTHILLS OF THE BLUES

CITY            SKY/WX      TMP DP  RH  WIND    PRES   REMARKS
PENDLETON AIRPT SUNNY       96  55  25  VRB6    29.89F HX 94
#ADAMS 3WNW     N/A         96  59  29  CALM    29.77F HX 95
#ATHENA         N/A         91  59  34  E1      29.81F HX 90
#CAYUSE         N/A         93  60  33  NW1     29.78F HX 93
#HELIX SCHOOL   N/A         95  58  29  W1      29.78F HX 94
#HELIX 3N       N/A         92  57  31  NW2     29.90F HX 91
#HELIX 6SW      N/A         93  59  32  SW2     29.90F HX 92
#HOLDMAN 6E     N/A         95  57  28  NE7     29.61F HX 94
#M-F GROVE ELEM N/A         88  57  35  CALM    29.88F
#M-FREEWATER 5SEN/A         89  68  50  CALM    29.91S
#PDT AQUATIC CTRN/A         99  61  29  W3      29.92S HX 100
#PDT SUNRIDGE   N/A         98  59  28  W1      29.88F HX 98
#PENDLETON 7NW  N/A         93  65  40  CALM    26.72S HX 95
#PILOT ROCK     N/A         92  59  33  W2      29.93F HX 91
#TUTUILLA       N/A         94  62  35  E2      29.83F HX 95
#UMAPINE 2E     N/A         91  64  41  CALM    29.84F HX 93
#WESTON SCHOOL  N/A         89  55  32  NE2     29.82F

$$

ORZ508-300010-
SOUTHERN FOOTHILLS OF THE BLUES

CITY            SKY/WX      TMP DP  RH  WIND    PRES   REMARKS
#AJAX           N/A         94  49  22  W2      29.89F HX 91
#CONDON SCHOOL  N/A         92  53  27  N6      29.94F HX 90
#CONDON 5W      N/A         91  44  20  N7      29.99F HX 87
#HEPPNER EOC    N/A         94  55  27  W7      29.71F HX 92
#HEPPNER 4NE    N/A         92  55  29  N15     29.78S HX 90
#LEXINGTON 2SE  N/A         98  58  27  NW2     29.85S HX 98
#RUGGS 5NE      N/A         95  56  27  N5      30.14F HX 93
#RUGGS 2SW      N/A         91  54  29  N3      29.78F HX 89

$$

ORZ502-503-300010-
BLUE MOUNTAINS

CITY            SKY/WX      TMP DP  RH  WIND    PRES   REMARKS
MEACHAM         PTCLDY      89  55  32  VRB6    30.05F
#HEPPNER 15SE   N/A         85  58  40  CALM    29.99F
#PIKES PEAK     N/A         81  60  49  N1      27.99S
#TOLLGATE       N/A         79  56  45  NW1     30.07S
#TROY SCHOOL    N/A         99  62  30  W1      29.58F HX 101
#UKIAH          N/A         92  58  32  S2      29.82F HX 91
#WESTON 4E      N/A         86  60  42  CALM    29.75S
$$

ORZ505-300010-
JOHN DAY BASIN

CITY            SKY/WX      TMP DP  RH  WIND    PRES   REMARKS
JOHN DAY        PTCLDY      94  55  27  W8      30.03F HX 92
#JOHN DAY KJDY  N/A         97  71  43  W3      29.97F HX 105
#DAYVILLE SCHOOLN/A         97  48  19  NE2     29.91F HX 94
#MITCHELL       N/A         96  59  29  CALM    30.13F HX 95
#MONUMENT HS    N/A         97  48  19  SE2     29.92F HX 94
#MT. VERNON 5SE N/A         90  55  31  CALM    30.01F HX 88
#WINLOCK        N/A         93  55  28  S3      30.07F HX 91
$$

ORZ506-300010-
OCHOCO AND JOHN DAY HIGHLANDS

CITY            SKY/WX      TMP DP  RH  WIND    PRES   REMARKS
#PAULINA SCHOOL N/A         95  42  16  NW3     30.00F HX 91
#PINE MTN OBS   N/A         79  24  13  S7      N/A
#PRAIRIE CITY   N/A         96  59  29  W1      29.70F HX 95
#SENECA         N/A         85  N/A N/A N2      N/A
#SENECA 9NW     N/A         90  57  33  SW1     29.78F HX 89
$$

ORZ049-300010-
GRANDE RONDE VALLEY

CITY            SKY/WX      TMP DP  RH  WIND    PRES   REMARKS
LA GRANDE       PTCLDY      93  55  28  N9      29.96F HX 91
#ELGIN 3N       N/A         94  50  23  W2      29.94F HX 91
#ELGIN 1E       N/A         93  59  32  CALM    N/A    HX 92
#IMBLER SCHOOL  N/A         93  57  30  CALM    29.92F HX 92
#ISLAND CITY 4N N/A         89  68  50  CALM    29.61F
#UNION 1S       N/A         90  62  39  NW5     29.67S HX 90
$$

ORZ050-300010-
WALLOWA COUNTY

CITY            SKY/WX      TMP DP  RH  WIND    PRES   REMARKS
#ENTERPRISE HS  N/A         90  59  35  N7      30.02F HX 89
#IMNAHA SCHOOL  N/A         101 54  21  N6      29.84S HX 99
#JOSEPH 3N      N/A         90  51  26  NW12    30.06F HX 87
#JOSEPH 3W      N/A         85  58  40  SW2     29.95S
#LOSTINE        N/A         93  60  33  N3      29.57F HX 93
#MT HOWARD 8000 N/A         70  52  53  W2      30.42S
#PROMISE 1S     N/A         88  57  35  S3      29.86F
#WALLOWA SCHOOL N/A         94  57  29  NW2     29.94F HX 93



$$



USA.gov is the U.S. government's official web portal to all federal, state and local government web resources and services.